Location: Beadle
(51.4667°N, 109.0000°W)
Time: 01:51:05
(UTC+00:00)

ISS - Visible Passes

Search period start: 21 January 2022 00:00
Search period end: 31 January 2022 00:00
Orbit: 413 x 422 km, 51.6° (Epoch: 20 January)

Date Brightness Start Highest point End Pass type
(mag) Time Alt. Az. Time Alt. Az. Time Alt. Az.
21 Jan -1.8 00:59:54 10° S 01:02:09 17° SE 01:03:34 14° ESE visible
21 Jan -1.4 02:35:10 10° WSW 02:36:31 22° SW 02:36:31 22° SW visible
22 Jan -3.3 01:47:20 10° SW 01:50:32 45° SSE 01:50:36 45° SSE visible
23 Jan -2.7 00:59:36 10° SW 01:02:38 33° SSE 01:04:37 17° E visible
23 Jan -1.7 02:35:51 10° WSW 02:37:33 28° WSW 02:37:33 28° WSW visible
24 Jan -3.9 01:47:52 10° WSW 01:51:11 73° SSE 01:51:32 65° ESE visible
25 Jan -3.5 00:59:54 10° WSW 01:03:11 58° SSE 01:05:29 18° E visible
25 Jan -1.8 02:36:34 10° W 02:38:25 30° W 02:38:25 30° W visible
26 Jan -3.9 01:48:31 10° W 01:51:52 87° N 01:52:20 64° E visible
27 Jan -3.8 01:00:27 10° WSW 01:03:48 85° SSE 01:06:14 17° E visible
27 Jan -1.9 02:37:15 10° W 02:39:10 32° W 02:39:10 32° W visible
28 Jan -3.9 01:49:09 10° W 01:52:31 87° N 01:53:04 59° E visible
28 Jan -0.1 03:25:58 10° W 03:26:00 10° W 03:26:00 10° W visible
29 Jan -3.8 01:01:03 10° W 01:04:24 85° N 01:06:59 16° E visible
29 Jan -2.1 02:37:51 10° W 02:39:55 33° W 02:39:55 33° W visible
30 Jan -3.7 01:49:43 10° W 01:53:04 73° SSW 01:53:52 47° SE visible
30 Jan -0.2 03:26:45 10° W 03:26:48 10° W 03:26:48 10° W visible
